Regional Weather Roundup
Issued by NWS

Home | Current Version | Previous Version | Graphics & Text | Print | Product List | Glossary On
Versions: 1 2 3 4 5 6 7 8 9 10 11 12 13 14 15 16 17 18 19 20 21 22 23 24 25 26 27 28 29 30 31 32 33 34 35 36 37 38 39 40 41 42 43 44 45 46 47 48 49 50
000
ASUS43 KDTX 292310
RWRMI
MICHIGAN HOURLY REGIONAL WEATHER ROUNDUP
NATIONAL WEATHER SERVICE DETROIT/PONTIAC MI
700 PM EDT FRI JUL 29 2016

NOTE: "FAIR" INDICATES FEW OR NO CLOUDS BELOW 12,000 FEET WITH NO
SIGNIFICANT WEATHER AND/OR OBSTRUCTION TO VISIBILITY.

MIZ047>049-052>055-059>063-066>070-074>076-081>083-300000-
SOUTHEAST LOWER MICHIGAN

CITY           SKY/WX    TMP DP  RH WIND       PRES   REMARKS
ADRIAN         PTSUNNY   75  66  73 E14       29.95R
ALMA           CLOUDY    72  60  65 NE10      30.01S
ANN ARBOR      CLOUDY    76  66  71 NE7       29.95S
BAD AXE        MOSUNNY   69  55  61 NE10G16   30.03S
CARO           MOSUNNY   72  56  57 NE7       30.00S
DETROIT CITY   CLOUDY    76  65  68 NE10      29.95S
DETROIT        CLOUDY    78  64  61 NE10      29.95S
FLINT          MOSUNNY   80  54  40 NE14      29.99R
GROSSE ILE     CLOUDY    75  66  74 NE10      29.93F
HILLSDALE      CLOUDY    76  65  69 E13G18    29.95R
HOWELL         MOSUNNY   78  56  46 NE10      29.97S

CITY           SKY/WX    TMP DP  RH WIND       PRES   REMARKS
JACKSON        CLOUDY    77  66  68 E12       29.95S
LAMBERTVILLE   CLOUDY    76  70  82 E7        29.94S
LANSING        CLOUDY    75  57  53 NE12      29.97F
LAPEER         FAIR      74  55  49 NE10G16   29.99S
MASON          CLOUDY    77  59  54 NE8       29.96S
MONROE         CLOUDY    74  69  84 NE5       29.94S
MT. CLEMENS    PTSUNNY   76  61  59 NE12      29.94R
PONTIAC        CLOUDY    77  57  50 NE14      29.97R
PORT HOPE        N/A     71  59  65 NE17      30.02R
PORT HURON     CLOUDY    72  61  68 N10       29.98S
TRI CITIES     CLOUDY    71  60  68 NE14      30.02S
MIDLAND        FAIR      70  58  65 E10       30.02S
TROY           CLOUDY    79  59  50 NE9G16    29.97F
SAGINAW HB     CLOUDY    72  59  64 N10       30.01R
$$
MIZ043>046-050>051-056>058-064>065-071>073-077>080-300000-
SOUTHWEST LOWER MICHIGAN

CITY           SKY/WX    TMP DP  RH WIND       PRES   REMARKS
BATTLE CREEK   CLOUDY    73  65  75 NE9       29.95F
BENTON HARBOR  CLOUDY    75  67  76 NE3       29.93S
BIG RAPIDS     CLOUDY    75  61  62 E8        30.00S
COLDWATER      CLOUDY    76  70  82 NE7       29.93S
FREMONT        FAIR      74  64  71 E7        29.99R
HOLLAND        CLOUDY    76  63  64 E9        29.96S
GRAND RAPIDS   CLOUDY    74  63  68 NE14      29.98S
IONIA          FAIR      72  61  68 NE15      29.98S
KALAMAZOO      MOSUNNY   75  64  68 N10       29.94F
LUDINGTON      CLOUDY    77  62  59 NE6       29.97F
MARSHALL       CLOUDY    76  65  67 NE3       29.94F
MOUNT PLEASANT CLOUDY    74  55  51 E13       30.01S
MUSKEGON       CLOUDY    77  62  59 E14       29.97S
SOUTH HAVEN    CLOUDY    75  66  75 NE7       29.94R
$$
MIZ016>042-300000-
NORTHERN LOWER MICHIGAN

CITY           SKY/WX    TMP DP  RH WIND       PRES   REMARKS
ALPENA         SUNNY     73  54  51 SE8       30.05S
BEAVER ISLAND  SUNNY     74  51  43 E10       30.05S
BELLAIRE       SUNNY     78  52  40 N7G17     30.00S
CADILLAC       CLOUDY    74  59  59 NE5       30.02S
CHARLEVOIX     SUNNY     76  48  36 NE13      30.06R
FRANKFORT      SUNNY     76  55  48 N3        30.01R
GAYLORD        SUNNY     76  48  37 NE10G22   30.04S
GRAYLING       MOSUNNY   78  54  42 E16       30.04R
HARBOR SPRINGS SUNNY     75  48  37 E12G17    30.04S
HOUGHTON LAKE  SUNNY     74  57  55 SE9       30.03R
MANISTEE       CLOUDY    78  61  55 NE6       29.99R
OSCODA         MOSUNNY   71  55  57 NE9       30.05R
PELLSTON       SUNNY     76  47  35 E12       30.05S
ROGERS CITY    SUNNY     72  52  48 NE5       30.06S
TRAVERSE CITY  MOSUNNY   78  57  48 VRB7      29.98S
$$
MIZ007>008-015-300000-
EASTERN UPPER MICHIGAN

CITY           SKY/WX    TMP DP  RH WIND       PRES   REMARKS
KINROSS        SUNNY     73  55  53 NW10      30.05F
MACKINAC ISLAN SUNNY     73  50  44 E6        30.05S
NEWBERRY       PTSUNNY   75  54  46 S5        30.04S
S. S. MARIE    SUNNY     74  54  49 NW10      30.04F
$$
MIZ004>006-011>014-085-300000-
CENTRAL UPPER MICHIGAN

CITY           SKY/WX    TMP DP  RH WIND       PRES   REMARKS
MANISTIQUE     SUNNY     73  55  54 E8        30.05R
ESCANABA       MOSUNNY   73  55  53 SE10      30.03S
MENOMINEE      SUNNY    N/A N/A N/A E12       30.04S
SAWYER-GWINN   SUNNY     72  48  43 NE15      30.08S
$$
MIZ001>003-009>011-084-300000-
WESTERN UPPER MICHIGAN

CITY           SKY/WX    TMP DP  RH WIND       PRES   REMARKS
IRON MOUNTAIN  PTSUNNY   76  52  43 E3        30.03S
HOUGHTON       SUNNY     71  48  43 E9        30.08F
COPPER HARBOR    N/A     73  53  49 VRB5      30.07F
IRONWOOD       SUNNY     70  55  60 N8        30.04F
$$

ABBREVIATIONS USED IN REMARKS
   TC - TEMPERATURE IN CELSIUS
  WCI - WIND CHILL INDEX
   HX - HEAT INDEX
  VSB - VISIBILITY




USA.gov is the U.S. government's official web portal to all federal, state and local government web resources and services.